User: anonymous   Login
Location: Goheenville
(40.9070°N, 79.3720°W)
Time: 09:32:34
(UTC-04:00)
Language:

Cosmos 1727 Rocket - Orbit

View from above orbital plane
View from above orbital plane
View from above satellite
View from above satellite

Ground track
Ground track

The orbit data is extracted from the following two-line orbital elements,

1 16511U 86008B   16272.50418089 -.00000026  00000-0 -42458-4 0  9996
2 16511  82.9440  53.9795 0023005 294.9201 129.4864 13.75807972540291
Epoch (UTC): 28 September 2016 12:06:01
Eccentricity: 0.0023005
inclination: 82.9440°
perigee height: 962 km
apogee height: 996 km
right ascension of ascending node: 53.9795°
argument of perigee: 294.9201°
revolutions per day: 13.75807972
mean anomaly at epoch: 129.4864°
orbit number at epoch: 54029

The dashed part of the orbit path shows where the satellite is in the earth's shadow,  

DLR